Home   Weather   Idar-Oberstein   Past weeks

Flag for Germany Past Weather in Idar-Oberstein, Rhineland-Palatinate, Germany — Yesterday and Last 2 Weeks

Now
50 °F

Sunny.


Feels Like: 44 °F
Forecast: 44 / 51 °F
Wind: 18 mph from Southeast

Location: Hahn

Current Time: Apr 30, 2017 at 11:25:56 am

Latest Report: Apr 30, 2017 at 10:50 am


Visibility: 10 mi

Pressure: 29.89 "Hg

Humidity: 50%

Dew Point: 32 °F

Location of Idar-ObersteinLocation

Past Weather in Idar-Oberstein — Graph

°F

Idar-Oberstein Temperature Yesterday

Maximum temperature yesterday: 55 °F (at 4:50 pm)
Minimum temperature yesterday: 36 °F (at 5:20 am)
Average temperature yesterday: 44 °F

High & Low Weather Summary for the Past Weeks

 TemperatureHumidityPressure
High57 °F (Apr 24, 4:20 pm)100% (Apr 15, 4:20 pm)30.57 "Hg (Apr 15, 4:20 pm)
Low27 °F (Apr 20, 5:20 am)29% (Apr 20, 4:50 pm)29.68 "Hg (Apr 25, 4:50 am)
Average41 °F68%30.10 "Hg
* Reported Apr 15 10:20 am — Apr 30 10:20 am, Idar-Oberstein, Weather by CustomWeather, © 2017

Note: Actual official high and low records may vary slightly from our data, if they occured in-between our weather recording intervals... More about our weather records

Advertising

Idar-Oberstein Weather History for the Previous 24 Hours

Scroll right to see more
 ConditionsComfort  
Time TempWeatherWind HumidityBarometerVisibility
10:20 am
Sun, Apr 30
50 °FSunny.15 mph54%29.89 "Hg10 mi
9:50 am46 °FSunny.16 mph62%29.92 "Hg10 mi
9:20 am45 °FSunny.14 mph66%29.92 "Hg10 mi
8:50 am43 °FPassing clouds.8 mph66%29.92 "HgN/A
8:20 am41 °FSunny.6 mph70%29.92 "Hg10 mi
7:50 am39 °FPassing clouds.6 mph70%29.92 "HgN/A
7:20 am37 °FPassing clouds.7 mph75%29.92 "HgN/A
6:50 am36 °FSunny.6 mph75%29.95 "Hg10 mi
6:20 am36 °FSunny.8 mph75%29.95 "Hg10 mi
5:50 am37 °FClear.5 mph70%29.95 "Hg10 mi
5:20 am37 °FClear.6 mph70%29.92 "Hg10 mi
4:50 am39 °FClear.7 mph65%29.95 "Hg10 mi
4:20 am37 °FClear.6 mph70%29.95 "Hg10 mi
3:50 am39 °FClear.6 mph65%29.95 "Hg10 mi
3:20 am39 °FClear.6 mph65%29.95 "Hg10 mi
2:50 am41 °FClear.6 mph61%29.95 "Hg10 mi
2:20 am41 °FClear.8 mph61%29.95 "Hg10 mi
1:50 am41 °FClear.7 mph61%29.95 "Hg10 mi
1:20 am41 °FClear.6 mph61%29.98 "Hg10 mi
12:50 am41 °FClear.6 mph61%29.98 "Hg10 mi
12:20 am41 °FClear.7 mph61%29.98 "Hg10 mi
11:50 pm
Sat, Apr 29
41 °FClear.7 mph61%29.98 "Hg10 mi
11:20 pm41 °FClear.6 mph61%29.98 "Hg10 mi
10:50 pm43 °FClear.5 mph57%29.98 "Hg10 mi
10:20 pm45 °FPassing clouds.6 mph49%29.98 "HgN/A
9:20 pm45 °FClear.7 mph53%29.98 "Hg10 mi
8:50 pm46 °FClear.9 mph50%29.98 "Hg10 mi
8:20 pm48 °FSunny.9 mph46%29.98 "Hg10 mi
7:50 pm50 °FPassing clouds.6 mph47%29.98 "HgN/A
7:20 pm52 °FSunny.7 mph41%29.98 "Hg10 mi
6:50 pm54 °FPassing clouds.8 mph38%29.98 "HgN/A
6:20 pm54 °FSunny.8 mph38%29.98 "Hg10 mi
5:50 pm54 °FPassing clouds.5 mph35%29.98 "HgN/A
5:20 pm54 °FSunny.6 mph35%29.98 "Hg10 mi
4:50 pm55 °FSunny.5 mph36%30.01 "Hg10 mi
4:20 pm54 °FSunny.5 mph35%30.01 "Hg10 mi
3:50 pm52 °FSunny.5 mph38%30.01 "Hg10 mi
3:20 pm54 °FSunny.3 mph35%30.01 "Hg10 mi
2:20 pm50 °FSunny.3 mph43%30.04 "Hg10 mi
1:50 pm50 °FSunny.5 mph43%30.04 "Hg10 mi
1:20 pm48 °FPassing clouds.3 mph46%30.04 "HgN/A
12:50 pm48 °FScattered clouds.6 mph46%30.04 "HgN/A
12:20 pm46 °FScattered clouds.9 mph50%30.04 "HgN/A
11:50 am46 °FScattered clouds.7 mph50%30.04 "HgN/A
11:20 am45 °FPassing clouds.7 mph53%30.04 "HgN/A
Weather by CustomWeather, © 2017

See weather overviewHow to use our weather pages